SCP
0 0 0 0 0 0 0 0 0 0 0 0 0 0 0 0 0 0 0 0 0 0 0 0 0 0 0 0 0 0 0 0 0 0 0 0 0 0 0 0 0 0 0 0 0 0 0 0 0 0 0 0 0 0
0 0 0 0 0 0 0 0 0 0 0 0 0 0 0 0 0 0 0 0 0 0 0 0 0 0 0 0 0 0 0 0 0 0 0 0 0 0 0 0 0 0 0 0 0 0 0 0 0 0 0 0 0 0
0 0 0 0 0 0 0 0 0 0 0 0 0 0 0 0 0 0 0 0 0 0 0 0 0 0 0 0 0 0 0 0 0 0 0 0 0 0 0 0 0 0 0 0 0 0 0 0 0 0 0 0 0 0
0 0 0 0 0 0 0 0 0 0 0 0 0 0 0 0 0 0 0 0 0 0 0 0 0 0 0 0 0 0 0 0 0 0 0 0 0 0 0 0 0 0 0 0 0 0 0 0 0 0 0 0 0 0
0 0 0 0 0 0 0 0 0 0 0 0 0 0 0 0 0 0 0 0 0 0 0 0 -0 -0 0 0 0 0 0 0 0 0 0 0 0 0 0 0 0 0 0 0 0 0 0 0 0 0 0 0 0 0
0 0 0 0 0 0 0 0 0 0 0 0 0 0 0 0 0 0 0 0 0 0 0 0 0 0 0 0 0 0 0 0 0 0 0 0 0 0 0 0 0 0 0 0 0 0 0 0 0 0 0 0 0 0
0 0 0 0 0 0 0 0 0 0 0 0 0 0 0 0 0 0 0 0 0 0 0 0 0 0 0 0 0 0 0 0 0 0 0 0 0 0 0 0 0 0 0 -0 -0 0 0 0 0 0 0 0 0 0
0 0 0 0 0 0 0 0 0 0 0 0 0 0 0 0 0 0 0 -0 0 0 0 0 0 0 0 0 0 0 0 0 0 0 0 0 0 0 0 0 0 0 0 0 0 0 0 0 0 0 0 0 0 0
0 0 0 0 0 0 0 0 0 0 0 0 0 0 0 0 0 0 0 0 0 0 0 0 0 0 0 0 0 0 0 0 0 0 0 0 0 0 0 0 0 0 0 0 0 0 0 0 0 0 0 0 0 0
0 0 0 0 0 0 0 0 0 0 0 0 0 0 0 0 0 0 0 0 0 0 0 0 0 0 0 0 0 0 0 0 0 0 0 0 0 0 0 0 0 0 0 0 0 0 0 0 0 0 0 0 -0 0
0 0 0 0 0 0 0 0 0 0 0 0 0 0 0 0 0 0 0 0 0 0 0 0 0 0 0 0 0 0 0 0 0 0 0 0 0 0 0 0 0 0 0 0 0 0 0 0 0 0 0 -0 -0 0
0 0 0 0 0 0 0 0 0 0 0 0 0 0 0 0 0 0 0 0 0 0 0 0 0 0 0 0 0 0 0 0 0 0 0 0 0 0 0 0 0 0 0 0 0 0 0 0 -0 -0 -0 -0 -0 -0
0 0 0 0 0 0 0 0 0 0 0 0 0 0 0 0 0 0 0 0 0 0 0 0 0 0 0 0 0 0 0 0 0 0 0 0 0 0 0 0 0 0 0 0 0 0 -0 -0 -0 -0 -0 -0 -0 0
0 0 0 0 0 0 0 0 0 0 0 0 0 0 0 0 0 0 0 0 0 0 0 -0 -0 0 0 0 0 0 0 0 0 0 0 0 0 0 0 0 0 0 0 0 -0 -0 0 0 0 0 0 0 0 0
0 0 0 0 0 0 0 0 0 0 0 0 0 0 0 0 0 0 0 0 0 0 0 -0 0 0 0 0 0 0 0 0 0 0 0 0 0 0 0 0 0 -0 -0 -0 -0 0 0 0 0 0 0 0 0 0
0 0 0 0 0 0 0 0 0 0 0 0 0 0 0 0 0 0 0 0 0 0 0 0 0 0 0 0 0 0 0 0 0 0 0 0 0 -0 0 0 0 -0 -0 -0 0 0 0 0 0 0 0 0 0 0
0 0 0 0 -0 -0 0 0 0 0 0 0 0 0 0 0 0 0 0 0 0 0 0 0 0 0 0 0 0 0 0 0 0 0 -0 -0 -0 0 0 0 0 -0 -0 -0 -0 0 0 0 0 0 0 0 0 0
0 0 0 0 0 0 0 0 0 0 0 0 0 0 0 0 0 0 0 0 0 0 0 0 0 0 0 0 0 0 0 -0 0 0 -0 -0 -0 0 0 0 0 -0 -0 -0 -0 0 0 0 0 0 0 0 0 0
0 0 0 -0 0 0 0 0 0 0 -0 0 0 0 0 0 0 0 0 0 0 0 0 0 0 0 0 0 0 0 0 0 0 -0 -0 -0 0 0 0 0 0 -0 -0 0 0 0 0 -0 0 -0 0 0 0 0
0 0 0 -0 0 0 0 0 0 -0 0 0 0 0 0 0 0 0 0 0 0 0 0 0 0 0 0 0 0 0 0 0 0 0 0 0 0 0 0 0 0 -0 0 0 0 0 0 0 0 0 0 0 0 0
0 0 -0 0 0 0 -0 0 0 0 -0 0 -0 -0 -0 -0 0 0 -0 0 0 0 -0 -0 0 0 0 0 0 0 0 0 0 0 0 0 0 0 0 0 -0 -0 0 0 -0 -0 0 0 0 0 0 0 0 0
0 0 0 0 0 0 0 -0 0 0 0 0 0 0 0 0 0 0 0 -0 -0 -0 -0 -0 0 0 0 0 0 0 0 0 0 0 0 0 0 0 -0 -0 -0 -0 0 0 0 -0 -0 0 0 -0 0 0 0 0
0 0 0 0 0 0 0 0 0 0 0 0 0 0 0 0 -0 -0 0 0 0 0 0 -0 0 0 0 0 0 0 0 0 0 -0 -0 0 -0 -0 -0 0 0 0 0 0 -0 -0 0 0 0 0 0 0 0 0
0 0 0 0 0 0 0 0 0 0 0 0 0 0 0 0 0 0 0 0 0 0 0 0 0 0 -0 -0 -0 -0 0 0 0 0 -0 -0 -0 -0 -0 -0 -0 -0 0 -0 -0 -0 -0 -0 0 0 0 0 0 0
0 0 0 0 0 0 0 0 0 0 0 0 0 0 0 -0 0 0 0 0 0 -0 -0 -0 -0 -0 -0 -0 0 0 0 0 0 0 -0 -0 -0 -0 -0 -0 -0 0 -0 -0 -0 -0 -0 0 0 0 0 0 0 0
0 0 0 0 0 0 0 0 0 0 0 0 0 0 0 0 0 -0 -0 0 0 -0 0 0 0 0 -0 0 0 0 0 -0 -0 -0 -0 -0 -0 -0 -0 -0 0 0 -0 -0 -0 -0 -0 -0 0 0 0 0 0 0
0 0 0 0 0 0 0 0 0 0 0 0 0 0 0 0 0 0 0 0 0 -0 0 0 0 -0 -0 0 0 0 0 0 -0 0 -0 -0 0 0 0 -0 -0 -0 -0 -0 -0 -0 -0 -0 -0 0 0 0 0 0
0 0 0 0 0 0 0 0 0 0 0 0 0 0 0 0 0 0 0 -0 -0 -0 0 0 0 0 -0 0 0 0 0 0 0 0 0 0 0 -0 -0 -0 0 -0 -0 -0 -0 -0 -0 -0 -0 -0 -0 -0 0 0
0 0 0 0 0 0 0 0 0 0 0 0 0 -0 -0 -0 0 0 0 0 0 0 0 0 0 0 0 0 0 0 0 0 0 0 0 0 -0 -0 0 -0 -0 -0 -0 -0 -0 -0 -0 -0 -0 -0 0 0 0 0
0 0 0 0 0 0 0 0 0 0 0 0 0 0 0 0 0 0 0 0 0 0 0 0 0 0 0 0 0 0 0 0 0 0 0 0 -0 -0 -0 -0 -0 -0 -0 -0 -0 -0 -0 -0 -0 -0 -0 0 0 0
0 0 0 0 0 0 0 0 0 -0 0 0 0 0 0 0 -0 0 0 0 0 0 0 0 0 0 0 0 0 0 0 0 0 -0 -0 0 0 -0 -0 -0 -0 -0 -0 -0 -0 -0 -0 -0 0 0 0 0 0 0
0 0 0 0 0 0 0 -0 -0 -0 0 0 0 0 0 0 0 0 0 -0 0 0 0 0 -0 0 0 0 0 0 0 0 0 -0 -0 -0 -0 -0 -0 0 0 0 -0 -0 -0 -0 -0 -0 0 0 0 0 0 0
0 0 0 0 0 -0 -0 -0 -0 -0 0 0 0 0 0 0 0 0 0 0 -0 -0 -0 -0 -0 -0 -0 0 0 0 0 0 0 0 0 -0 0 0 0 0 0 0 -0 0 -0 -0 -0 -0 -0 -0 0 0 0 0
Wind_Speed_500mb
41 40 36 32 29 29 31 30 28 27 25 21 20 20 20 21 19 10 11 9 7 12 36 43 38 20 16 9 6 9 15 5 7 2 5 5 3 5 7 6 1 6 5 7 1 3 5 12 12 3 11 2 5 12
37 35 32 29 28 29 29 28 29 26 25 24 21 21 22 21 20 16 12 18 18 23 29 35 35 31 43 50 34 7 6 6 6 4 1 1 4 6 1 7 11 2 6 4 10 9 12 30 16 5 7 6 14 19
36 34 32 31 31 30 28 28 28 28 28 26 23 24 24 22 21 22 21 18 25 22 50 42 17 20 20 27 39 27 28 25 13 4 6 6 7 5 4 8 5 12 6 2 6 7 31 33 19 17 19 20 20 21
35 34 34 32 31 31 31 29 27 27 27 26 24 26 24 22 22 24 26 14 18 9 10 19 23 32 18 22 34 43 51 27 21 8 4 5 6 8 6 8 6 12 10 6 12 18 28 25 40 38 33 27 29 31
33 32 31 30 29 29 30 29 27 24 22 20 22 22 22 22 20 23 24 19 23 17 9 34 65 51 29 33 33 30 45 54 42 8 5 6 7 2 4 1 10 14 10 8 8 22 13 43 56 26 29 35 38 35
36 35 33 28 24 21 19 16 15 17 18 17 18 19 20 17 17 17 3 6 20 25 10 7 29 63 48 32 46 48 44 58 45 16 11 10 14 4 5 7 17 12 23 10 10 42 65 17 18 27 27 32 35 38
29 27 23 22 21 20 19 18 17 17 16 16 18 17 20 18 17 17 6 20 18 17 9 12 16 17 29 31 24 32 51 47 45 35 17 24 22 18 3 16 38 29 52 75 67 61 41 17 15 24 29 29 28 29
26 24 23 20 22 22 22 21 18 18 17 17 15 12 16 18 25 37 26 28 13 9 6 5 10 24 20 14 11 13 27 37 31 31 12 12 6 14 9 40 57 67 59 60 57 31 21 15 25 29 36 39 37 34
27 28 26 24 22 23 22 20 18 17 15 13 11 11 17 18 14 8 18 13 32 23 8 9 5 8 9 9 12 5 4 2 4 10 14 14 8 10 16 28 39 48 38 33 20 20 20 19 25 28 29 36 42 42
29 33 30 30 25 22 21 21 20 19 15 14 15 9 9 9 3 5 7 16 15 17 15 11 14 9 14 18 9 8 10 3 4 10 12 9 10 59 49 49 53 48 40 22 28 26 10 13 24 34 39 40 43 47
26 27 28 28 24 21 19 18 17 19 20 17 13 10 11 10 6 11 9 13 15 8 15 18 43 28 22 4 5 8 3 4 5 8 13 6 6 4 16 11 4 18 20 12 12 15 16 17 28 40 49 52 49 48
31 31 27 28 27 26 22 20 21 24 17 16 13 9 9 7 9 8 6 7 8 8 13 13 18 26 16 21 8 7 7 3 10 3 5 5 2 22 29 28 23 15 11 6 18 34 34 36 45 51 54 55 51 46
23 26 26 27 27 27 24 23 25 22 22 21 12 7 4 7 11 8 13 7 7 11 4 8 10 12 18 20 9 5 5 10 14 3 6 1 23 23 28 25 17 9 16 21 19 21 49 51 46 50 58 56 54 43
30 28 30 30 25 26 27 26 26 25 19 12 11 6 9 7 8 8 6 3 12 12 19 9 5 2 8 6 7 8 9 6 6 6 5 5 26 33 26 10 27 19 25 30 33 33 35 37 43 48 49 46 47 34
22 21 23 27 29 27 26 25 29 31 20 11 11 10 14 24 16 6 21 31 21 18 11 1 5 7 1 5 4 3 4 7 7 6 4 18 15 9 11 5 7 23 28 37 36 36 34 34 34 40 43 37 28 27
18 19 25 26 25 25 25 25 30 38 12 12 13 9 22 9 14 5 12 13 13 10 6 4 4 2 5 5 5 9 6 5 4 4 11 7 3 16 15 14 21 26 38 39 35 33 29 29 30 28 27 19 19 27
20 22 11 16 21 27 25 30 31 17 13 12 14 31 40 30 26 32 25 25 23 12 3 3 6 8 6 6 9 7 4 6 10 15 7 4 6 16 27 28 28 30 33 25 27 31 29 28 27 25 25 19 8 26
23 14 15 14 25 34 33 34 13 12 10 16 12 34 39 42 45 45 35 26 19 23 13 6 5 5 6 3 4 5 7 5 8 13 22 21 16 20 28 29 23 30 23 16 21 18 17 22 14 12 15 16 11 14
18 16 15 22 28 27 10 14 13 8 23 18 34 40 38 47 50 49 48 39 45 34 9 11 7 6 7 8 8 7 11 14 10 13 10 18 21 23 23 19 25 20 9 4 10 9 13 15 12 16 14 7 3 3
15 11 15 30 34 14 11 10 13 12 12 14 35 44 46 45 45 46 50 46 43 37 16 10 9 23 29 38 41 44 45 33 30 16 17 20 18 23 19 19 23 8 5 10 16 24 21 20 19 19 12 9 7 14
27 17 10 25 21 5 8 9 14 13 14 14 22 35 34 32 40 39 45 49 51 35 21 44 51 57 51 54 47 56 57 49 37 27 26 30 25 23 15 23 16 7 12 17 25 25 21 20 18 19 12 5 10 12
12 16 15 17 7 7 10 14 12 9 11 19 27 28 23 26 33 42 45 37 35 47 52 52 53 53 55 56 50 44 36 33 29 24 29 31 25 21 15 24 26 16 20 24 31 25 18 18 12 9 9 9 16 13
22 16 5 7 8 8 12 12 11 10 6 7 7 7 5 5 17 29 14 27 38 36 38 36 35 28 24 33 37 33 33 42 35 31 33 22 17 14 27 28 16 12 18 30 24 14 18 11 9 8 8 8 15 16
8 4 5 8 12 9 9 10 13 10 9 3 4 6 8 14 13 6 5 4 5 8 9 13 22 35 39 36 29 22 27 33 32 20 18 18 19 18 33 17 9 16 20 28 21 16 11 7 6 8 9 12 16 22
3 6 6 8 10 9 7 7 9 7 8 10 10 5 3 3 4 4 1 5 24 25 28 29 27 30 29 36 19 18 15 12 16 17 17 18 19 27 18 16 15 20 24 24 18 12 13 6 10 10 12 14 17 21
4 7 10 8 7 7 7 6 5 5 6 4 5 13 10 5 4 5 4 22 22 23 27 18 16 16 16 10 6 5 15 17 14 14 13 15 18 19 22 19 25 22 25 27 22 15 13 3 10 14 13 15 19 23
5 8 11 14 12 14 5 13 15 6 5 3 3 4 5 6 8 8 24 39 41 31 12 8 7 14 19 8 7 6 3 7 14 20 17 18 20 26 34 34 23 21 19 26 17 13 10 5 9 15 18 18 19 23
10 9 8 26 21 22 6 4 5 4 5 11 6 6 6 6 5 21 26 47 46 46 22 16 13 13 10 7 10 8 12 14 14 7 9 15 7 12 17 10 15 20 21 17 8 7 4 10 12 15 16 18 22 25
11 16 23 29 26 11 6 8 3 7 6 8 4 5 4 6 20 28 26 48 43 48 52 52 50 35 27 18 13 9 8 11 13 8 5 20 19 17 11 14 19 21 18 14 7 5 7 10 9 15 18 18 23 26
16 19 8 11 6 4 9 7 5 1 1 10 14 21 25 35 28 31 34 35 42 44 43 40 42 41 39 32 22 9 12 16 16 23 26 24 22 19 13 14 14 11 10 10 11 13 11 10 11 18 23 23 28 32
16 5 10 13 8 16 9 17 19 15 10 10 15 21 13 18 41 48 45 43 38 41 44 43 42 41 43 43 39 28 13 6 7 9 10 24 25 32 17 15 7 2 0 10 16 14 9 12 20 23 29 29 32 36
12 15 6 5 13 16 39 19 13 5 7 21 17 16 11 8 14 22 46 48 44 41 40 38 36 35 38 40 36 27 14 15 3 6 13 12 33 27 17 8 6 12 10 22 17 13 10 14 24 26 31 36 35 38
13 21 27 26 3 7 7 16 9 7 11 8 13 17 18 10 10 21 34 41 39 37 36 32 31 31 35 37 39 30 16 13 11 5 24 20 21 19 18 11 11 16 19 17 18 13 13 19 25 28 35 40 40 41
Wind_Direction_500mb
261 260 260 263 262 264 269 271 271 274 281 288 294 298 301 302 302 295 177 229 235 256 275 278 265 285 283 250 171 323 349 318 22 109 182 273 274 291 341 292 257 188 200 229 79 179 305 330 299 334 238 130 299 308
257 256 258 260 262 262 262 264 270 274 280 286 291 294 292 291 289 286 230 223 262 264 262 283 275 260 263 266 268 259 249 311 274 92 330 59 339 331 326 279 336 356 164 242 169 224 256 318 339 127 101 2 315 296
254 254 254 254 256 258 258 261 269 275 279 283 285 280 280 281 281 283 279 288 281 287 291 276 277 299 275 250 253 250 260 246 225 35 218 216 228 131 247 252 335 326 4 250 3 293 324 341 6 310 318 323 318 303
253 252 252 253 255 258 259 261 265 267 274 278 276 276 277 277 276 275 281 283 273 288 271 282 235 259 256 255 244 259 248 224 242 276 274 204 180 188 233 244 199 219 322 277 275 295 316 315 328 325 320 317 314 316
248 248 252 255 257 258 260 258 258 257 257 268 275 281 279 274 281 281 287 278 240 232 290 297 296 289 267 258 256 259 234 233 241 212 194 231 227 155 271 291 269 215 215 167 239 312 320 300 320 335 359 356 338 325
240 243 243 243 253 258 260 261 259 261 254 258 268 288 290 283 284 301 258 308 178 204 275 297 303 295 292 264 254 241 238 228 222 191 205 227 216 184 227 231 246 281 247 280 294 321 320 347 41 27 11 3 342 338
242 242 243 242 237 237 241 247 252 262 267 250 262 275 288 283 261 239 225 165 179 195 256 295 287 286 310 306 280 257 229 225 216 217 217 230 224 206 210 255 259 258 268 282 297 309 305 304 351 342 350 352 340 339
246 241 239 238 234 232 239 233 251 252 245 252 249 272 284 281 270 267 269 213 210 241 229 260 269 304 302 281 255 227 201 211 208 214 214 201 194 194 243 241 263 269 270 275 282 276 297 318 322 328 328 327 326 324
236 234 233 238 239 236 238 246 250 237 232 232 241 269 283 252 253 80 48 181 205 214 249 221 226 260 294 355 353 79 126 74 221 189 213 177 195 222 231 239 254 280 274 276 252 299 294 298 312 320 323 329 338 334
249 240 240 235 230 243 245 236 235 223 227 228 214 233 241 215 21 204 117 176 181 209 233 246 230 253 344 357 2 23 6 267 232 231 186 209 236 251 262 266 271 272 299 312 258 240 271 297 308 313 315 323 330 327
244 235 234 242 222 227 227 225 218 215 209 206 198 235 237 275 262 175 197 187 190 227 223 242 231 244 258 222 239 259 212 246 270 253 177 218 263 87 86 76 51 231 224 143 65 18 348 329 309 306 301 308 311 317
232 228 231 230 231 222 226 222 221 213 208 194 214 261 282 216 211 205 201 224 217 228 211 213 235 219 229 218 184 205 190 264 248 265 164 217 202 112 96 80 59 23 345 347 348 338 321 302 295 295 294 297 295 305
234 227 233 237 226 212 223 221 222 223 216 220 216 229 222 226 227 217 204 193 212 212 155 334 254 202 193 195 182 153 207 244 302 285 233 240 149 124 98 72 43 47 311 303 297 284 281 289 291 293 292 286 286 293
233 233 229 222 218 219 227 226 215 216 201 202 181 212 211 225 237 208 234 266 276 315 328 328 143 2 284 149 193 163 222 247 246 239 227 140 135 128 123 44 355 309 315 316 317 312 302 297 301 308 307 294 283 269
218 222 225 222 225 224 223 218 208 214 198 201 195 223 219 232 256 300 296 282 297 305 337 97 98 178 118 312 272 178 246 250 233 251 219 155 147 144 219 157 277 301 315 321 317 310 305 301 303 314 313 306 271 232
222 230 232 223 221 221 212 206 203 215 219 202 222 244 263 260 269 301 347 338 335 312 319 183 144 231 183 191 229 230 204 211 19 313 74 89 281 244 225 261 289 305 317 314 302 300 297 288 288 311 328 289 226 225
211 224 219 211 209 206 195 196 200 200 219 207 218 227 254 272 266 271 292 290 311 276 171 200 246 204 150 215 202 209 118 172 213 249 235 246 177 239 248 263 294 320 326 318 301 305 305 297 290 298 305 333 186 215
211 221 229 207 176 172 181 199 195 216 243 222 230 227 236 250 264 276 275 277 236 224 169 196 284 238 246 225 3 167 196 33 274 285 297 271 246 248 254 267 297 322 311 302 307 298 294 308 276 320 302 300 341 119
212 228 209 201 190 181 177 199 216 256 237 231 242 241 238 249 251 258 270 259 253 258 234 179 226 222 228 239 179 232 256 226 265 279 264 240 248 245 251 266 313 314 299 281 18 14 354 345 324 295 281 252 278 293
210 174 174 175 178 175 196 212 203 240 251 240 241 241 236 242 257 257 264 265 256 250 211 210 203 241 268 284 286 289 290 286 294 290 295 300 279 245 257 306 323 300 268 327 339 322 301 312 315 311 315 215 186 182
144 155 168 167 191 222 218 215 222 234 254 248 258 253 242 249 241 247 254 261 250 232 240 247 248 257 268 271 278 282 274 275 267 269 281 289 270 244 259 338 342 320 289 292 314 317 277 275 291 283 275 253 189 176
147 167 175 184 214 232 260 228 236 261 252 244 272 269 246 231 237 247 255 241 246 246 249 253 260 263 266 273 269 270 280 281 257 270 277 288 241 225 276 335 327 293 278 291 308 293 273 287 279 256 244 225 203 178
146 146 173 191 216 232 263 217 235 236 235 230 202 275 279 268 247 247 219 235 240 248 251 256 251 254 270 273 264 265 269 261 268 263 276 262 220 259 325 320 288 285 294 305 305 280 308 291 240 226 218 200 177 172
157 217 209 212 217 258 254 227 224 246 251 206 260 270 218 200 217 227 253 106 45 2 314 276 268 264 264 282 276 282 283 256 239 238 234 252 262 285 309 277 277 302 283 288 274 302 330 325 227 184 176 175 171 170
229 232 213 261 231 246 246 233 219 232 255 262 260 243 37 197 213 234 191 71 342 318 305 290 276 273 284 297 264 248 261 234 219 234 254 257 276 292 261 259 274 290 288 274 263 305 338 337 173 172 171 170 170 173
265 227 194 238 220 218 309 317 274 272 257 265 339 320 338 347 299 27 25 334 318 333 339 325 286 278 236 304 328 348 321 219 236 264 261 253 272 277 256 274 272 286 281 265 269 307 322 290 183 175 174 167 168 166
271 265 241 249 249 267 316 284 272 267 299 284 288 319 344 20 18 342 324 354 334 8 345 325 280 231 204 119 154 302 256 266 280 298 276 266 261 257 272 275 264 247 269 246 260 308 330 203 198 176 178 174 166 168
256 270 246 305 288 272 183 267 285 294 308 322 352 41 32 26 4 339 356 13 25 53 46 46 97 152 159 55 356 336 328 308 287 249 255 290 269 158 213 211 206 231 238 236 249 306 341 163 164 175 172 175 173 172
250 253 274 279 284 271 209 165 244 296 308 350 39 46 64 56 49 29 30 20 44 51 57 64 63 81 91 75 69 67 344 342 64 125 163 163 164 179 188 205 211 213 213 221 203 132 99 139 165 171 170 168 166 161
264 277 254 275 283 294 48 76 332 252 140 72 94 88 76 62 53 46 44 37 38 46 50 58 53 46 42 40 39 42 356 57 78 100 101 112 141 167 192 196 192 218 236 243 188 153 148 160 162 160 163 153 153 151
269 281 240 244 255 264 186 110 111 102 88 122 119 125 130 94 58 50 42 39 36 41 44 43 40 33 28 26 22 21 30 48 84 113 149 166 155 185 189 200 177 139 25 185 162 149 161 173 157 157 160 154 152 152
237 222 237 271 294 21 143 123 123 82 42 78 88 96 88 70 42 31 30 29 32 34 34 30 29 27 21 16 18 19 23 16 3 153 122 128 172 169 188 169 58 34 79 136 144 140 125 146 156 155 157 157 155 155
253 274 277 274 298 96 169 174 135 115 67 47 41 56 77 79 64 30 24 24 26 22 21 22 19 13 7 8 12 21 15 13 1 170 166 159 162 169 165 151 95 77 74 119 139 130 131 134 140 147 151 157 156 153
Wind_Speed_850mb
41 40 36 32 29 29 31 30 28 27 25 21 20 20 20 21 19 10 11 9 7 12 36 43 38 20 16 9 6 9 15 5 7 2 5 5 3 5 7 6 1 6 5 7 1 3 5 12 12 3 11 2 5 12
37 35 32 29 28 29 29 28 29 26 25 24 21 21 22 21 20 16 12 18 18 23 29 35 35 31 43 50 34 7 6 6 6 4 1 1 4 6 1 7 11 2 6 4 10 9 12 30 16 5 7 6 14 19
36 34 32 31 31 30 28 28 28 28 28 26 23 24 24 22 21 22 21 18 25 22 50 42 17 20 20 27 39 27 28 25 13 4 6 6 7 5 4 8 5 12 6 2 6 7 31 33 19 17 19 20 20 21
35 34 34 32 31 31 31 29 27 27 27 26 24 26 24 22 22 24 26 14 18 9 10 19 23 32 18 22 34 43 51 27 21 8 4 5 6 8 6 8 6 12 10 6 12 18 28 25 40 38 33 27 29 31
33 32 31 30 29 29 30 29 27 24 22 20 22 22 22 22 20 23 24 19 23 17 9 34 65 51 29 33 33 30 45 54 42 8 5 6 7 2 4 1 10 14 10 8 8 22 13 43 56 26 29 35 38 35
36 35 33 28 24 21 19 16 15 17 18 17 18 19 20 17 17 17 3 6 20 25 10 7 29 63 48 32 46 48 44 58 45 16 11 10 14 4 5 7 17 12 23 10 10 42 65 17 18 27 27 32 35 38
29 27 23 22 21 20 19 18 17 17 16 16 18 17 20 18 17 17 6 20 18 17 9 12 16 17 29 31 24 32 51 47 45 35 17 24 22 18 3 16 38 29 52 75 67 61 41 17 15 24 29 29 28 29
26 24 23 20 22 22 22 21 18 18 17 17 15 12 16 18 25 37 26 28 13 9 6 5 10 24 20 14 11 13 27 37 31 31 12 12 6 14 9 40 57 67 59 60 57 31 21 15 25 29 36 39 37 34
27 28 26 24 22 23 22 20 18 17 15 13 11 11 17 18 14 8 18 13 32 23 8 9 5 8 9 9 12 5 4 2 4 10 14 14 8 10 16 28 39 48 38 33 20 20 20 19 25 28 29 36 42 42
29 33 30 30 25 22 21 21 20 19 15 14 15 9 9 9 3 5 7 16 15 17 15 11 14 9 14 18 9 8 10 3 4 10 12 9 10 59 49 49 53 48 40 22 28 26 10 13 24 34 39 40 43 47
26 27 28 28 24 21 19 18 17 19 20 17 13 10 11 10 6 11 9 13 15 8 15 18 43 28 22 4 5 8 3 4 5 8 13 6 6 4 16 11 4 18 20 12 12 15 16 17 28 40 49 52 49 48
31 31 27 28 27 26 22 20 21 24 17 16 13 9 9 7 9 8 6 7 8 8 13 13 18 26 16 21 8 7 7 3 10 3 5 5 2 22 29 28 23 15 11 6 18 34 34 36 45 51 54 55 51 46
23 26 26 27 27 27 24 23 25 22 22 21 12 7 4 7 11 8 13 7 7 11 4 8 10 12 18 20 9 5 5 10 14 3 6 1 23 23 28 25 17 9 16 21 19 21 49 51 46 50 58 56 54 43
30 28 30 30 25 26 27 26 26 25 19 12 11 6 9 7 8 8 6 3 12 12 19 9 5 2 8 6 7 8 9 6 6 6 5 5 26 33 26 10 27 19 25 30 33 33 35 37 43 48 49 46 47 34
22 21 23 27 29 27 26 25 29 31 20 11 11 10 14 24 16 6 21 31 21 18 11 1 5 7 1 5 4 3 4 7 7 6 4 18 15 9 11 5 7 23 28 37 36 36 34 34 34 40 43 37 28 27
18 19 25 26 25 25 25 25 30 38 12 12 13 9 22 9 14 5 12 13 13 10 6 4 4 2 5 5 5 9 6 5 4 4 11 7 3 16 15 14 21 26 38 39 35 33 29 29 30 28 27 19 19 27
20 22 11 16 21 27 25 30 31 17 13 12 14 31 40 30 26 32 25 25 23 12 3 3 6 8 6 6 9 7 4 6 10 15 7 4 6 16 27 28 28 30 33 25 27 31 29 28 27 25 25 19 8 26
23 14 15 14 25 34 33 34 13 12 10 16 12 34 39 42 45 45 35 26 19 23 13 6 5 5 6 3 4 5 7 5 8 13 22 21 16 20 28 29 23 30 23 16 21 18 17 22 14 12 15 16 11 14
18 16 15 22 28 27 10 14 13 8 23 18 34 40 38 47 50 49 48 39 45 34 9 11 7 6 7 8 8 7 11 14 10 13 10 18 21 23 23 19 25 20 9 4 10 9 13 15 12 16 14 7 3 3
15 11 15 30 34 14 11 10 13 12 12 14 35 44 46 45 45 46 50 46 43 37 16 10 9 23 29 38 41 44 45 33 30 16 17 20 18 23 19 19 23 8 5 10 16 24 21 20 19 19 12 9 7 14
27 17 10 25 21 5 8 9 14 13 14 14 22 35 34 32 40 39 45 49 51 35 21 44 51 57 51 54 47 56 57 49 37 27 26 30 25 23 15 23 16 7 12 17 25 25 21 20 18 19 12 5 10 12
12 16 15 17 7 7 10 14 12 9 11 19 27 28 23 26 33 42 45 37 35 47 52 52 53 53 55 56 50 44 36 33 29 24 29 31 25 21 15 24 26 16 20 24 31 25 18 18 12 9 9 9 16 13
22 16 5 7 8 8 12 12 11 10 6 7 7 7 5 5 17 29 14 27 38 36 38 36 35 28 24 33 37 33 33 42 35 31 33 22 17 14 27 28 16 12 18 30 24 14 18 11 9 8 8 8 15 16
8 4 5 8 12 9 9 10 13 10 9 3 4 6 8 14 13 6 5 4 5 8 9 13 22 35 39 36 29 22 27 33 32 20 18 18 19 18 33 17 9 16 20 28 21 16 11 7 6 8 9 12 16 22
3 6 6 8 10 9 7 7 9 7 8 10 10 5 3 3 4 4 1 5 24 25 28 29 27 30 29 36 19 18 15 12 16 17 17 18 19 27 18 16 15 20 24 24 18 12 13 6 10 10 12 14 17 21
4 7 10 8 7 7 7 6 5 5 6 4 5 13 10 5 4 5 4 22 22 23 27 18 16 16 16 10 6 5 15 17 14 14 13 15 18 19 22 19 25 22 25 27 22 15 13 3 10 14 13 15 19 23
5 8 11 14 12 14 5 13 15 6 5 3 3 4 5 6 8 8 24 39 41 31 12 8 7 14 19 8 7 6 3 7 14 20 17 18 20 26 34 34 23 21 19 26 17 13 10 5 9 15 18 18 19 23
10 9 8 26 21 22 6 4 5 4 5 11 6 6 6 6 5 21 26 47 46 46 22 16 13 13 10 7 10 8 12 14 14 7 9 15 7 12 17 10 15 20 21 17 8 7 4 10 12 15 16 18 22 25
11 16 23 29 26 11 6 8 3 7 6 8 4 5 4 6 20 28 26 48 43 48 52 52 50 35 27 18 13 9 8 11 13 8 5 20 19 17 11 14 19 21 18 14 7 5 7 10 9 15 18 18 23 26
16 19 8 11 6 4 9 7 5 1 1 10 14 21 25 35 28 31 34 35 42 44 43 40 42 41 39 32 22 9 12 16 16 23 26 24 22 19 13 14 14 11 10 10 11 13 11 10 11 18 23 23 28 32
16 5 10 13 8 16 9 17 19 15 10 10 15 21 13 18 41 48 45 43 38 41 44 43 42 41 43 43 39 28 13 6 7 9 10 24 25 32 17 15 7 2 0 10 16 14 9 12 20 23 29 29 32 36
12 15 6 5 13 16 39 19 13 5 7 21 17 16 11 8 14 22 46 48 44 41 40 38 36 35 38 40 36 27 14 15 3 6 13 12 33 27 17 8 6 12 10 22 17 13 10 14 24 26 31 36 35 38
13 21 27 26 3 7 7 16 9 7 11 8 13 17 18 10 10 21 34 41 39 37 36 32 31 31 35 37 39 30 16 13 11 5 24 20 21 19 18 11 11 16 19 17 18 13 13 19 25 28 35 40 40 41
Wind_Direction_850mb
261 260 260 263 262 264 269 271 271 274 281 288 294 298 301 302 302 295 177 229 235 256 275 278 265 285 283 250 171 323 349 318 22 109 182 273 274 291 341 292 257 188 200 229 79 179 305 330 299 334 238 130 299 308
257 256 258 260 262 262 262 264 270 274 280 286 291 294 292 291 289 286 230 223 262 264 262 283 275 260 263 266 268 259 249 311 274 92 330 59 339 331 326 279 336 356 164 242 169 224 256 318 339 127 101 2 315 296
254 254 254 254 256 258 258 261 269 275 279 283 285 280 280 281 281 283 279 288 281 287 291 276 277 299 275 250 253 250 260 246 225 35 218 216 228 131 247 252 335 326 4 250 3 293 324 341 6 310 318 323 318 303
253 252 252 253 255 258 259 261 265 267 274 278 276 276 277 277 276 275 281 283 273 288 271 282 235 259 256 255 244 259 248 224 242 276 274 204 180 188 233 244 199 219 322 277 275 295 316 315 328 325 320 317 314 316
248 248 252 255 257 258 260 258 258 257 257 268 275 281 279 274 281 281 287 278 240 232 290 297 296 289 267 258 256 259 234 233 241 212 194 231 227 155 271 291 269 215 215 167 239 312 320 300 320 335 359 356 338 325
240 243 243 243 253 258 260 261 259 261 254 258 268 288 290 283 284 301 258 308 178 204 275 297 303 295 292 264 254 241 238 228 222 191 205 227 216 184 227 231 246 281 247 280 294 321 320 347 41 27 11 3 342 338
242 242 243 242 237 237 241 247 252 262 267 250 262 275 288 283 261 239 225 165 179 195 256 295 287 286 310 306 280 257 229 225 216 217 217 230 224 206 210 255 259 258 268 282 297 309 305 304 351 342 350 352 340 339
246 241 239 238 234 232 239 233 251 252 245 252 249 272 284 281 270 267 269 213 210 241 229 260 269 304 302 281 255 227 201 211 208 214 214 201 194 194 243 241 263 269 270 275 282 276 297 318 322 328 328 327 326 324
236 234 233 238 239 236 238 246 250 237 232 232 241 269 283 252 253 80 48 181 205 214 249 221 226 260 294 355 353 79 126 74 221 189 213 177 195 222 231 239 254 280 274 276 252 299 294 298 312 320 323 329 338 334
249 240 240 235 230 243 245 236 235 223 227 228 214 233 241 215 21 204 117 176 181 209 233 246 230 253 344 357 2 23 6 267 232 231 186 209 236 251 262 266 271 272 299 312 258 240 271 297 308 313 315 323 330 327
244 235 234 242 222 227 227 225 218 215 209 206 198 235 237 275 262 175 197 187 190 227 223 242 231 244 258 222 239 259 212 246 270 253 177 218 263 87 86 76 51 231 224 143 65 18 348 329 309 306 301 308 311 317
232 228 231 230 231 222 226 222 221 213 208 194 214 261 282 216 211 205 201 224 217 228 211 213 235 219 229 218 184 205 190 264 248 265 164 217 202 112 96 80 59 23 345 347 348 338 321 302 295 295 294 297 295 305
234 227 233 237 226 212 223 221 222 223 216 220 216 229 222 226 227 217 204 193 212 212 155 334 254 202 193 195 182 153 207 244 302 285 233 240 149 124 98 72 43 47 311 303 297 284 281 289 291 293 292 286 286 293
233 233 229 222 218 219 227 226 215 216 201 202 181 212 211 225 237 208 234 266 276 315 328 328 143 2 284 149 193 163 222 247 246 239 227 140 135 128 123 44 355 309 315 316 317 312 302 297 301 308 307 294 283 269
218 222 225 222 225 224 223 218 208 214 198 201 195 223 219 232 256 300 296 282 297 305 337 97 98 178 118 312 272 178 246 250 233 251 219 155 147 144 219 157 277 301 315 321 317 310 305 301 303 314 313 306 271 232
222 230 232 223 221 221 212 206 203 215 219 202 222 244 263 260 269 301 347 338 335 312 319 183 144 231 183 191 229 230 204 211 19 313 74 89 281 244 225 261 289 305 317 314 302 300 297 288 288 311 328 289 226 225
211 224 219 211 209 206 195 196 200 200 219 207 218 227 254 272 266 271 292 290 311 276 171 200 246 204 150 215 202 209 118 172 213 249 235 246 177 239 248 263 294 320 326 318 301 305 305 297 290 298 305 333 186 215
211 221 229 207 176 172 181 199 195 216 243 222 230 227 236 250 264 276 275 277 236 224 169 196 284 238 246 225 3 167 196 33 274 285 297 271 246 248 254 267 297 322 311 302 307 298 294 308 276 320 302 300 341 119
212 228 209 201 190 181 177 199 216 256 237 231 242 241 238 249 251 258 270 259 253 258 234 179 226 222 228 239 179 232 256 226 265 279 264 240 248 245 251 266 313 314 299 281 18 14 354 345 324 295 281 252 278 293
210 174 174 175 178 175 196 212 203 240 251 240 241 241 236 242 257 257 264 265 256 250 211 210 203 241 268 284 286 289 290 286 294 290 295 300 279 245 257 306 323 300 268 327 339 322 301 312 315 311 315 215 186 182
144 155 168 167 191 222 218 215 222 234 254 248 258 253 242 249 241 247 254 261 250 232 240 247 248 257 268 271 278 282 274 275 267 269 281 289 270 244 259 338 342 320 289 292 314 317 277 275 291 283 275 253 189 176
147 167 175 184 214 232 260 228 236 261 252 244 272 269 246 231 237 247 255 241 246 246 249 253 260 263 266 273 269 270 280 281 257 270 277 288 241 225 276 335 327 293 278 291 308 293 273 287 279 256 244 225 203 178
146 146 173 191 216 232 263 217 235 236 235 230 202 275 279 268 247 247 219 235 240 248 251 256 251 254 270 273 264 265 269 261 268 263 276 262 220 259 325 320 288 285 294 305 305 280 308 291 240 226 218 200 177 172
157 217 209 212 217 258 254 227 224 246 251 206 260 270 218 200 217 227 253 106 45 2 314 276 268 264 264 282 276 282 283 256 239 238 234 252 262 285 309 277 277 302 283 288 274 302 330 325 227 184 176 175 171 170
229 232 213 261 231 246 246 233 219 232 255 262 260 243 37 197 213 234 191 71 342 318 305 290 276 273 284 297 264 248 261 234 219 234 254 257 276 292 261 259 274 290 288 274 263 305 338 337 173 172 171 170 170 173
265 227 194 238 220 218 309 317 274 272 257 265 339 320 338 347 299 27 25 334 318 333 339 325 286 278 236 304 328 348 321 219 236 264 261 253 272 277 256 274 272 286 281 265 269 307 322 290 183 175 174 167 168 166
271 265 241 249 249 267 316 284 272 267 299 284 288 319 344 20 18 342 324 354 334 8 345 325 280 231 204 119 154 302 256 266 280 298 276 266 261 257 272 275 264 247 269 246 260 308 330 203 198 176 178 174 166 168
256 270 246 305 288 272 183 267 285 294 308 322 352 41 32 26 4 339 356 13 25 53 46 46 97 152 159 55 356 336 328 308 287 249 255 290 269 158 213 211 206 231 238 236 249 306 341 163 164 175 172 175 173 172
250 253 274 279 284 271 209 165 244 296 308 350 39 46 64 56 49 29 30 20 44 51 57 64 63 81 91 75 69 67 344 342 64 125 163 163 164 179 188 205 211 213 213 221 203 132 99 139 165 171 170 168 166 161
264 277 254 275 283 294 48 76 332 252 140 72 94 88 76 62 53 46 44 37 38 46 50 58 53 46 42 40 39 42 356 57 78 100 101 112 141 167 192 196 192 218 236 243 188 153 148 160 162 160 163 153 153 151
269 281 240 244 255 264 186 110 111 102 88 122 119 125 130 94 58 50 42 39 36 41 44 43 40 33 28 26 22 21 30 48 84 113 149 166 155 185 189 200 177 139 25 185 162 149 161 173 157 157 160 154 152 152
237 222 237 271 294 21 143 123 123 82 42 78 88 96 88 70 42 31 30 29 32 34 34 30 29 27 21 16 18 19 23 16 3 153 122 128 172 169 188 169 58 34 79 136 144 140 125 146 156 155 157 157 155 155
253 274 277 274 298 96 169 174 135 115 67 47 41 56 77 79 64 30 24 24 26 22 21 22 19 13 7 8 12 21 15 13 1 170 166 159 162 169 165 151 95 77 74 119 139 130 131 134 140 147 151 157 156 153